Home   Weather   Santa Cruz   Past weeks

Flag for USA Past Weather in Santa Cruz, California, USA — Yesterday and Last 2 Weeks

Now
59 °F

Passing clouds.


Feels Like: 59 °F
Forecast: 58 / 66 °F
Wind: 5 mph from Southwest

Location: Watsonville Municipal Airport

Current Time: Aug 18, 2017 at 8:51:13 pm

Latest Report: Aug 18, 2017 at 8:17 pm


Visibility: 10 mi

Pressure: 29.99 "Hg

Humidity: 93%

Dew Point: 57 °F

Location of Santa CruzLocation

Past Weather in Santa Cruz — Graph

°F

Santa Cruz Temperature Yesterday

Maximum temperature yesterday: 71 °F (at 1:53 pm)
Minimum temperature yesterday: 58 °F (at 11:53 pm)
Average temperature yesterday: 63 °F

High & Low Weather Summary for the Past Weeks

 TemperatureHumidityPressure
High80 °F (Aug 4, 12:53 pm)100% (Aug 4, 3:53 am)30.07 "Hg (Aug 4, 3:53 am)
Low53 °F (Aug 13, 2:01 am)54% (Aug 3, 6:53 pm)29.88 "Hg (Aug 15, 4:53 am)
Average62 °F86%29.96 "Hg
* Reported Aug 3 6:53 pm — Aug 18 6:53 pm, Santa Cruz. Weather by CustomWeather, © 2017

Note: Actual official high and low records may vary slightly from our data, if they occured in-between our weather recording intervals... More about our weather records

Advertising

Santa Cruz Weather History for the Previous 24 Hours

Scroll right to see more
 ConditionsComfort  
Time TempWeatherWind HumidityBarometerVisibility
6:53 pm
Fri, Aug 18
63 °FSunny.9 mph81%29.98 "Hg10 mi
5:53 pm64 °FSunny.10 mph78%29.98 "Hg10 mi
4:53 pm67 °FSunny.10 mph71%29.98 "Hg10 mi
3:53 pm68 °FSunny.10 mph68%29.99 "Hg10 mi
2:53 pm70 °FSunny.10 mph64%30.00 "Hg10 mi
1:53 pm70 °FSunny.9 mph66%30.01 "Hg10 mi
12:53 pm69 °FSunny.9 mph68%30.01 "Hg10 mi
11:53 am68 °FSunny.7 mph70%30.02 "Hg10 mi
10:53 am67 °FScattered clouds.6 mph76%30.02 "Hg10 mi
10:13 am66 °FOvercast.3 mph75%30.03 "Hg10 mi
9:53 am64 °FLow clouds.3 mph81%30.03 "Hg4 mi
9:08 am61 °FLow clouds.No wind90%30.03 "Hg7 mi
8:53 am60 °FLow clouds.No wind93%30.03 "Hg7 mi
7:53 am59 °FLow clouds.3 mph93%30.02 "Hg7 mi
7:26 am59 °FFog.No wind93%30.03 "Hg6 mi
6:53 am59 °FFog.3 mph96%30.02 "Hg6 mi
5:53 am59 °FLow clouds.No wind96%30.01 "Hg8 mi
4:53 am59 °FLow clouds.No wind93%30.00 "Hg8 mi
4:28 am59 °FLow clouds.No wind93%30.01 "Hg9 mi
3:53 am59 °FLow clouds.No wind93%30.00 "Hg9 mi
3:16 am59 °FLow clouds.No wind96%30.01 "Hg9 mi
3:03 am60 °FLow clouds.3 mph93%30.01 "Hg9 mi
1:53 am60 °FLow clouds.No wind90%30.01 "Hg10 mi
12:53 am60 °FLow clouds.No wind90%30.03 "Hg10 mi
12:33 am58 °FPassing clouds.No wind93%30.03 "Hg10 mi
11:53 pm
Thu, Aug 17
58 °FClear.No wind93%30.03 "Hg10 mi
10:53 pm59 °FClear.No wind90%30.03 "Hg10 mi
9:53 pm60 °FClear.No wind90%30.03 "Hg10 mi
8:53 pm60 °FClear.No wind90%30.02 "Hg10 mi
Weather by CustomWeather, © 2017

See weather overviewHow to use our weather pages